TimeEDT,TemperatureF,Dew PointF,Humidity,Sea Level PressureIn,VisibilityMPH,Wind Direction,Wind SpeedMPH,Gust SpeedMPH,PrecipitationIn,Events,Conditions,WindDirDegrees,DateUTC
12:15 AM,44.2,34.0,67,30.08,10.0,Calm,Calm,-,N/A,,Clear,0,2013-03-31 04:15:00
12:35 AM,41.0,35.2,80,30.08,10.0,Calm,Calm,-,N/A,,Clear,0,2013-03-31 04:35:00
12:55 AM,41.7,34.3,75,30.07,10.0,Calm,Calm,-,N/A,,Clear,0,2013-03-31 04:55:00
1:15 AM,42.3,35.4,77,30.06,10.0,Calm,Calm,-,N/A,,Clear,0,2013-03-31 05:15:00
1:35 AM,42.6,35.2,75,30.05,10.0,Calm,Calm,-,N/A,,Clear,0,2013-03-31 05:35:00
1:55 AM,42.6,36.0,77,30.04,10.0,Calm,Calm,-,N/A,,Clear,0,2013-03-31 05:55:00
2:15 AM,42.6,36.3,78,30.04,10.0,Calm,Calm,-,N/A,,Clear,0,2013-03-31 06:15:00
2:35 AM,40.1,35.6,84,30.03,10.0,Calm,Calm,-,N/A,,Clear,0,2013-03-31 06:35:00
2:55 AM,40.5,36.1,85,30.03,10.0,Calm,Calm,-,N/A,,Clear,0,2013-03-31 06:55:00
3:15 AM,39.9,36.3,87,30.02,10.0,Calm,Calm,-,N/A,,Clear,0,2013-03-31 07:15:00
3:35 AM,40.3,35.8,84,30.01,10.0,Calm,Calm,-,N/A,,Clear,0,2013-03-31 07:35:00
3:55 AM,40.5,36.3,85,30.00,10.0,Calm,Calm,-,N/A,,Scattered Clouds,0,2013-03-31 07:55:00
4:15 AM,41.9,36.5,81,29.99,10.0,Calm,Calm,-,N/A,,Mostly Cloudy,0,2013-03-31 08:15:00
4:35 AM,43.7,37.4,78,29.99,10.0,Calm,Calm,-,N/A,,Overcast,0,2013-03-31 08:35:00
4:55 AM,44.8,40.5,85,30.00,10.0,Calm,Calm,-,N/A,Rain,Rain,0,2013-03-31 08:55:00
5:15 AM,45.3,43.5,93,30.00,7.0,Calm,Calm,-,N/A,Rain,Rain,0,2013-03-31 09:15:00
5:35 AM,43.9,43.0,97,29.99,3.0,Calm,Calm,-,0.03,Rain,Rain,0,2013-03-31 09:35:00
5:55 AM,43.9,43.3,98,29.98,2.5,Calm,Calm,-,0.08,Rain,Heavy Rain,0,2013-03-31 09:55:00
6:15 AM,44.2,43.9,99,29.97,1.5,Calm,Calm,-,0.05,Rain,Light Rain,0,2013-03-31 10:15:00
6:35 AM,43.9,43.7,99,29.96,5.0,Calm,Calm,-,0.07,Rain,Rain,0,2013-03-31 10:35:00
6:55 AM,43.9,43.7,99,29.96,4.0,Calm,Calm,-,0.08,Rain,Rain,0,2013-03-31 10:55:00
7:15 AM,44.6,44.2,99,29.94,3.0,Calm,Calm,-,0.02,Rain,Light Rain,0,2013-03-31 11:15:00
7:35 AM,45.0,44.8,99,29.94,4.0,Calm,Calm,-,0.02,Rain,Light Rain,0,2013-03-31 11:35:00
7:55 AM,45.1,45.0,99,29.94,1.8,Calm,Calm,-,0.04,Rain,Rain,0,2013-03-31 11:55:00
8:15 AM,45.7,45.7,100,29.95,1.8,Calm,Calm,-,N/A,,Light Drizzle,0,2013-03-31 12:15:00
8:35 AM,46.0,46.0,100,29.94,1.5,Calm,Calm,-,N/A,Rain,Light Rain,0,2013-03-31 12:35:00
8:55 AM,46.4,46.4,100,29.93,1.2,Calm,Calm,-,N/A,,Heavy Drizzle,0,2013-03-31 12:55:00
9:15 AM,46.4,46.4,100,29.92,1.5,Calm,Calm,-,N/A,,Drizzle,0,2013-03-31 13:15:00
9:35 AM,46.9,46.9,100,29.91,1.2,Calm,Calm,-,N/A,,Overcast,0,2013-03-31 13:35:00
9:55 AM,47.3,47.3,100,29.91,1.0,Calm,Calm,-,N/A,Rain,Light Rain,0,2013-03-31 13:55:00
10:15 AM,47.8,47.8,100,29.91,1.5,Calm,Calm,-,N/A,,Overcast,0,2013-03-31 14:15:00
10:55 AM,49.1,49.1,100,29.91,2.0,Calm,Calm,-,N/A,,Overcast,0,2013-03-31 14:55:00
11:15 AM,50.0,50.0,100,29.91,2.0,WSW,3.5,-,N/A,,Overcast,240,2013-03-31 15:15:00
11:35 AM,50.9,50.7,99,29.91,2.5,WSW,6.9,-,N/A,,Overcast,240,2013-03-31 15:35:00
11:55 AM,52.3,51.8,98,29.90,3.0,WSW,4.6,-,N/A,,Overcast,240,2013-03-31 15:55:00
12:15 PM,52.9,51.8,96,29.89,4.0,SW,5.8,-,N/A,,Overcast,230,2013-03-31 16:15:00
12:35 PM,54.1,52.3,94,29.88,5.0,SW,9.2,-,N/A,,Overcast,230,2013-03-31 16:35:00
12:55 PM,54.5,52.2,92,29.88,5.0,SW,8.1,-,N/A,,Overcast,230,2013-03-31 16:55:00
1:15 PM,55.4,52.3,89,29.87,7.0,WSW,8.1,-,N/A,,Overcast,240,2013-03-31 17:15:00
1:35 PM,56.7,52.7,87,29.87,10.0,WSW,6.9,-,N/A,,Overcast,240,2013-03-31 17:35:00
1:55 PM,57.4,52.7,84,29.85,10.0,SW,8.1,-,N/A,,Overcast,220,2013-03-31 17:55:00
2:15 PM,59.7,54.0,81,29.85,10.0,SW,9.2,-,N/A,,Overcast,230,2013-03-31 18:15:00
2:35 PM,59.9,52.9,78,29.85,10.0,West,10.4,-,N/A,,Overcast,260,2013-03-31 18:35:00
2:55 PM,60.4,52.9,76,29.84,10.0,WSW,11.5,-,N/A,,Overcast,250,2013-03-31 18:55:00
3:15 PM,60.8,52.9,75,29.84,10.0,WSW,4.6,-,N/A,,Overcast,240,2013-03-31 19:15:00
3:35 PM,61.7,53.2,74,29.85,10.0,West,6.9,-,N/A,,Overcast,260,2013-03-31 19:35:00
3:55 PM,61.9,52.9,72,29.85,10.0,WSW,4.6,-,N/A,,Overcast,250,2013-03-31 19:55:00
4:15 PM,62.8,53.1,71,29.84,10.0,WSW,5.8,-,N/A,,Overcast,240,2013-03-31 20:15:00
4:35 PM,63.5,53.4,70,29.83,10.0,West,5.8,-,N/A,,Mostly Cloudy,270,2013-03-31 20:35:00
4:55 PM,63.9,53.6,69,29.83,10.0,WSW,5.8,-,N/A,,Overcast,240,2013-03-31 20:55:00
5:15 PM,64.6,53.4,67,29.82,10.0,West,3.5,-,N/A,,Mostly Cloudy,270,2013-03-31 21:15:00
5:35 PM,64.8,53.4,67,29.81,10.0,WSW,5.8,-,N/A,,Scattered Clouds,250,2013-03-31 21:35:00
5:55 PM,64.4,52.9,66,29.81,10.0,West,5.8,-,N/A,,Clear,260,2013-03-31 21:55:00
6:15 PM,64.4,52.9,66,29.81,10.0,Calm,Calm,-,N/A,,Clear,0,2013-03-31 22:15:00
6:35 PM,63.5,53.1,69,29.81,10.0,Calm,Calm,-,N/A,,Clear,0,2013-03-31 22:35:00
6:55 PM,61.9,53.8,75,29.81,10.0,Calm,Calm,-,N/A,,Mostly Cloudy,0,2013-03-31 22:55:00
7:15 PM,59.7,54.7,83,29.82,10.0,Calm,Calm,-,N/A,,Light Drizzle,0,2013-03-31 23:15:00
7:35 PM,59.2,54.3,84,29.81,10.0,Calm,Calm,-,N/A,,Overcast,0,2013-03-31 23:35:00
7:55 PM,59.0,54.5,85,29.81,10.0,Calm,Calm,-,N/A,Rain,Light Rain,0,2013-03-31 23:55:00
8:15 PM,59.2,54.5,84,29.81,10.0,Calm,Calm,-,N/A,Rain,Light Rain,0,2013-04-01 00:15:00
8:35 PM,59.5,53.8,81,29.81,10.0,SSW,8.1,-,N/A,,Scattered Clouds,200,2013-04-01 00:35:00
8:55 PM,58.8,54.1,84,29.82,10.0,SSW,4.6,-,N/A,,Mostly Cloudy,210,2013-04-01 00:55:00
9:15 PM,58.1,54.3,87,29.83,10.0,SW,5.8,-,N/A,,Overcast,220,2013-04-01 01:15:00
9:35 PM,57.7,54.1,88,29.83,10.0,SW,5.8,-,N/A,,Overcast,220,2013-04-01 01:35:00
9:55 PM,57.4,54.1,89,29.84,10.0,SW,3.5,-,N/A,,Overcast,230,2013-04-01 01:55:00
10:15 PM,57.2,54.1,89,29.83,10.0,SW,3.5,-,N/A,,Overcast,220,2013-04-01 02:15:00
10:35 PM,56.7,54.5,92,29.84,10.0,SSW,3.5,-,N/A,,Overcast,210,2013-04-01 02:35:00
10:55 PM,56.5,54.5,93,29.84,10.0,SW,4.6,-,N/A,,Overcast,220,2013-04-01 02:55:00
11:15 PM,56.3,54.5,94,29.85,10.0,SW,4.6,-,N/A,,Overcast,230,2013-04-01 03:15:00
11:35 PM,56.3,54.1,92,29.84,10.0,SW,3.5,-,N/A,,Overcast,220,2013-04-01 03:35:00
11:55 PM,55.4,53.6,94,29.84,10.0,Calm,Calm,-,N/A,,Overcast,0,2013-04-01 03:55:00